Time,TemperatureF,DewpointF,PressureIn,WindDirection,WindDirectionDegrees,WindSpeedMPH,WindSpeedGustMPH,Humidity,HourlyPrecipIn,Conditions,Clouds,dailyrainin,SoftwareType,DateUTC
2013-01-04 00:03:00,-999.0,-99.9,29.79,SW,220,9.0,18.0,-999,-99.99,,,-99.99,,2013-01-04 05:03:00,
2013-01-04 00:12:00,-999.0,-99.9,29.78,SW,227,7.0,24.0,-999,-99.99,,,-99.99,,2013-01-04 05:12:00,
2013-01-04 00:22:00,25.0,-99.9,29.76,SSW,202,8.0,17.0,-999,-99.99,,,-99.99,,2013-01-04 05:22:00,
2013-01-04 00:33:00,-999.0,-99.9,29.76,SW,234,8.0,18.0,-999,-99.99,,,-99.99,,2013-01-04 05:33:00,
2013-01-04 00:43:00,25.0,-99.9,29.75,SW,233,7.0,14.0,-999,-99.99,,,-99.99,,2013-01-04 05:43:00,
2013-01-04 00:53:00,-999.0,-99.9,29.73,SW,221,12.0,21.0,-999,-99.99,,,-99.99,,2013-01-04 05:53:00,
2013-01-04 01:02:00,-999.0,-99.9,29.72,SW,228,10.0,23.0,-999,-99.99,,,-99.99,,2013-01-04 06:02:00,
2013-01-04 01:12:00,-999.0,-99.9,29.71,SW,228,12.0,20.0,-999,-99.99,,,-99.99,,2013-01-04 06:12:00,
2013-01-04 01:22:00,-999.0,-99.9,29.70,SW,224,12.0,25.0,-999,-99.99,,,-99.99,,2013-01-04 06:22:00,
2013-01-04 01:33:00,-999.0,-99.9,29.70,SW,223,14.0,25.0,-999,-99.99,,,-99.99,,2013-01-04 06:33:00,
2013-01-04 01:43:00,-999.0,-99.9,29.70,SW,225,12.0,24.0,-999,-99.99,,,-99.99,,2013-01-04 06:43:00,
2013-01-04 01:53:00,28.0,-99.9,29.71,SW,220,8.0,24.0,-999,-99.99,,,-99.99,,2013-01-04 06:53:00,
2013-01-04 02:02:00,-999.0,-99.9,29.72,WSW,242,7.0,21.0,-999,-99.99,,,-99.99,,2013-01-04 07:02:00,
2013-01-04 02:12:00,29.0,-99.9,29.72,SW,235,9.0,23.0,-999,-99.99,,,-99.99,,2013-01-04 07:12:00,
2013-01-04 02:22:00,-999.0,-99.9,29.73,WSW,246,13.0,25.0,-999,-99.99,,,-99.99,,2013-01-04 07:22:00,
2013-01-04 02:32:00,-999.0,-99.9,29.73,WSW,238,12.0,18.0,-999,-99.99,,,-99.99,,2013-01-04 07:32:00,
2013-01-04 02:43:00,29.0,-99.9,29.74,WSW,258,14.0,28.0,-999,-99.99,,,-99.99,,2013-01-04 07:43:00,
2013-01-04 02:52:00,-999.0,-99.9,29.73,WSW,241,8.0,19.0,-999,-99.99,,,-99.99,,2013-01-04 07:52:00,
2013-01-04 03:03:00,-999.0,-99.9,29.73,WSW,257,9.0,21.0,-999,-99.99,,,-99.99,,2013-01-04 08:03:00,
2013-01-04 03:12:00,-999.0,-99.9,29.74,WSW,243,11.0,19.0,-999,-99.99,,,-99.99,,2013-01-04 08:12:00,
2013-01-04 03:23:00,28.0,-99.9,29.74,WSW,248,10.0,17.0,-999,-99.99,,,-99.99,,2013-01-04 08:23:00,
2013-01-04 03:33:00,-999.0,-99.9,29.75,WSW,254,8.0,16.0,-999,-99.99,,,-99.99,,2013-01-04 08:33:00,
2013-01-04 03:43:00,27.0,-99.9,29.75,West,264,8.0,18.0,-999,-99.99,,,-99.99,,2013-01-04 08:43:00,
2013-01-04 03:53:00,-999.0,-99.9,29.75,WSW,250,8.0,16.0,-999,-99.99,,,-99.99,,2013-01-04 08:53:00,
2013-01-04 04:02:00,-999.0,-99.9,29.75,WSW,256,12.0,17.0,-999,-99.99,,,-99.99,,2013-01-04 09:02:00,